User: anonymous   Login
Location: The Saddle
(36.8333°N, 80.3417°W)
Time: 06:00:02
(UTC-04:00)
Language:

AO-7 - Orbit

View from above orbital plane
View from above orbital plane
View from above satellite
View from above satellite

Ground track
Ground track

The orbit data is extracted from the following two-line orbital elements,

1 07530U 74089B   24164.91902362 -.00000036  00000-0  61406-4 0  9993
2 07530 101.9773 159.5274 0012634  92.3269 332.5202 12.53676089268500
Epoch (UTC): 12 June 2024 22:03:23
Eccentricity: 0.0012634
inclination: 101.9773°
perigee height: 1439 km
apogee height: 1459 km
right ascension of ascending node: 159.5274°
argument of perigee: 92.3269°
revolutions per day: 12.53676089
mean anomaly at epoch: 332.5202°
orbit number at epoch: 26850

The dashed part of the orbit path shows where the satellite is in the earth's shadow,  

DLR